Погода Ростов Великий

Погода Ростов Великий : погода сейчас, прогноз погоды и архив. Всё, что Вы хотите узнать о погоде Ростов Великий!

Хотите узнать прогноз погоды Ростов Великий? Тогда Вам сюда: Погода Ростов Великий

Поиск расширенной информации на нашем сайте:

Другие новости

Новости СМИ2

Главная страница сайта

Новости сайта

03.07.2017

Напоминаем, что на нашем специализированном сайте Метеоцентр.Азия вы можете получить высокодетализированные автоматические прогнозы погоды по пунктам России, СНГ и мира в авиационном формате (включающие направление и скорость ветра, видимость, явления погоды, количество и форму облачности, нижнюю и верхнюю границу облачности).


Погода Ростов Великий - сегодня

Время (UTC), дата Ветер
(°,м/с) 
Видим.   Явления Облачность Т
(°С)
Тd
(°С)
f(%) Тe
(°С)
Pmin
(гПа)
dP
(гПа)
Po
(мм)
O2
(г/м3)
Тmin Tmax R s Состояние
почвы
18 17.04.18 тихо ()   15000 м    10/10 600 м 
[Sc]
+10.8 +1.2 51 +11  1014.3  -0.3  752  291           
21 17.04.18 170 (Ю) 15000 м    6/6 600 м 
[Sc]
+10.8 +1.2 51 +12  1014.3  -1  751  291           
00 18.04.18 180 (Ю) 20000 м    10/10 600 м 
[Sc]
+8.5 +2.7 67 +10  1012.2  -1.1  750  293           
03 18.04.18 140 (ЮВ) 5000 м  дождь  10/0 средняя 
[Ac As]
+8.3 +7.2 93 +9  1010.9  -1.3  749  292  +7.4       
06 18.04.18 160 (Ю) 5000 м  ливневой дождь  10/8 300 м кучево-дожд., средняя 
[Cb cap|As op]
+9 +8.2 95 +8  1009.6  -1.2  748  290           
09 18.04.18 150 (ЮВ) 5000 м  дождь{ливн. осадки}  10/10 300 м 
[Frnb|Ns]
+9.9 +9 94 +10  1009.1  -0.4  748  289           
18 18.04.18 040 (СВ) 25000 м  {дождь}  10/10 300 м 
[Frnb|Ns]
+7.5 +5.9 90 +8  1009.3  0.1  748  292           
21 18.04.18 060 (СВ) 30000 м    10/10 300 м 
[Frnb|Ns]
+8.3 +2.2 65 +8  1008.2  0.1  747  292           
00 19.04.18 050 (СВ) 30000 м    10/10 300 м 
[Frnb|Ns]
+6.7 -1.1 57 +6  1007.5  -0.8  746  294           
03 19.04.18 020 (С) 50000 м    9/0 средняя 
[Ac As]
+4.9 -2.2 60 +5  1007.2  -0.4  746  296  +4.7    0.3     
06 19.04.18 040 (СВ) 50000 м    9/0 средняя, верхняя 
[Ac trans|Ci sp]
+8.7 -2.4 46 +8  1006.7  -0.3  746  292           
09 19.04.18 030 (СВ) 3{10}  50000 м    8/0 средняя, верхняя 
[Ac trans|Ci sp]
+12.3 -3.6 33 +12  1006.4  0.1  746  288           
18 19.04.18 360 (С) 2{10}  50000 м    3/0 верхняя 
[Ci fib]
+9.7 -3.4 40 +10  1009.4  2.2  748  291           
21 19.04.18 020 (С) 50000 м    ясно 
+8.4 -2.4 46 +8  1011  1.5  749  293           
00 20.04.18 350 (С) 50000 м    ясно 
+4.3 -2.3 62 +4  1012.3  1.1  750  298           
03 20.04.18 350 (С) 50000 м    3/0 средняя, верхняя 
[Ac trans|Ci fib]
+2.3 -2.1 73 +2  1013.9  1.4  751  300  +2.1         
06 20.04.18 020 (С) 50000 м    ясно 
+8.3 -2.3 47 +8  1014.6  752  294           
09 20.04.18 010 (С) 50000 м    8/8 600 м 
[Cu Sc]
+11.2 -2.1 39 +11  1014.8  0.3  752  291           
18 20.04.18 350 (С) 50000 м    10/0 средняя 
[Ac As]
+5.7 -7.6 38 +7  1012.7  -1  750  297           
21 20.04.18 тихо ()   50000 м    10/0 средняя 
[Ac As]
+5.1 -4.5 50 +5  1011  -1.7  749  297           
03 21.04.18 180 (Ю) 5000 м  ливневой дождь  10/10 600 м кучево-дожд. 
[Cb cap]
+3.6 +1.9 89 +2  1002.2  -5  742  295  +3.1       
06 21.04.18 210 (ЮЗ) 5000 м  ливневой дождь  10/10 600 м кучево-дожд. 
[Cb cap]
+5.7 +3.5 86 +5  997.6  -4.4  739  291           
09 21.04.18 150 (ЮВ) 10 км  {ливн. осадки}  10/10 600 м кучево-дожд. 
[Cb cap]
+10.4 +7.6 83 +11  991.5  -5.8  735  284           
15 21.04.18 320 (СЗ) 4{22}  5000 м  ливневой дождь{гроза}  10/10 600 м кучево-дожд. 
[Cb cap]
+10.4 +9.1 92 +11  983.8  -1.3  729  281    +17.7  11     
03 22.04.18 350 (С) 7-12{18}  5000 м  слаб. ливневой снег  10/10 600 м кучево-дожд. 
[Cb cap]
-0.2 -2.3 86 -4  993  3.4  735  297  -0.2    сухой снег
50-90% 
Время (UTC), дата Ветер
(°,м/с) 
Видим.   Явления Облачность Т
(°С)
Тd
(°С)
f(%) Тe
(°С)
Pmin
(гПа)
dP
(гПа)
Po
(мм)
O2
(г/м3)
Тmin Tmax R s Состояние
почвы

Для получения пояснительной информации подведите курсор к названию столбца.

ПОГОДА Ростов Великий - архив

Всё, что Вы хотите узнать о погоде Ростов Великий - удобно и подробно!

Выберите нужную дату (начиная с 1 января 2015* года) и нажмите кнопку "Найти".
Будут отображены архивные сводки погоды по пункту Ростов Великий, начиная с указанной даты.


Отображать данные в формате CSV (для использования в таблицах Excel)


Внимание! Наш архив погоды предназначен исключительно для личного некоммерческого использования в познавательных целях. Если Вам необходимы официальные справки о состоянии погоды (для производственных, юридических, коммерческих и т.п. целей), обращайтесь в органы Росгидромета.

*Примечание: данная дата относится к архиву по метеостанциям СССР (Россия, СНГ, Балтия).
Архив по метеостанциям Зарубежной Европы и Азии (кроме Китая) хранится 10 дней, по другим регионам земного шара (Китай, Африка, Америка, Австралия, Океания) - 1 день.

Ростов Великий - район местоположения метеостанции


Название, широта, долгота, высота метеостанции:
Ростов Великий 57.2°ш. 39.4°д. 101 м над ур. моря [Российская Федерация]

Дополнительная информация

В oтличие oт бoльшинства пoгoдных сайтoв мы публикуем пoдрoбную метеoинфoрмацию в детальнoм прoфессиoнальнoм фoрмате.

Характеристики температуры и влажнoсти вoздуха измеряются на высoте 2 м в тени вдали oт зданий и деревьев.
Скoрoсть ветра измеряется на высoте 10 м (на урoвне рoста челoвека скoрoсть ветра ниже в 1.5-2 раза). Если метеoстанция нахoдится в гoрoде или в лесу, тo скoрoсть ветра занижена на 2-4 м/с пo сравнению с oткрытым местoм. Скoрoсть ветра над акватoриями крупных рек и oзёр, а также на вершинах хoлмoв на 2-5 м/с выше, чем в oбычных услoвиях.
Атмoсфернoе давление в разных тoчках местнoсти мoжет значительнo oтличаться oт давления на метеoстанции, в зависимoсти oт услoвий рельефа (при пoдъёме на 10 м давление пoнижается примернo на 1 мм рт.ст.).